Weather in Matavla

Russia / Republic of Bashkortostan     56°04′14″N   57°34′45″E
temp.,
°C
wind,
m/s
gust,
m/s
humid.,
%
clouds,
%
prec.,
mm/h
press.,
hPa
HPBL,
m
1 august, sun
sun123:00+16ssw2594100 0.9 1007114
02:00+16sw3129418 0.0 1007335
05:00+16sw3119826 0.0 1008348
08:00+18wsw410896 0.0 1009424
11:00+24w510563 0.2 10091438
14:00+27w593943 0.0 10092875
17:00+27wnw5124025 0.0 10092777
20:00+21wnw25656 0.0 1010121
2 august, mon
mon223:00+16wsw1178100 0.0 101211
02:00+15sw118480 0.0 101313
05:00+14wsw118738 0.0 101411
08:00+18w256830 0.0 1015220
11:00+24w365011 0.0 10151383
14:00+26wnw46415 0.0 10141946
17:00+26wnw354224 0.0 10142057
20:00+22nw116810 0.0 101411
3 august, tue
tue323:00+19s117392 0.0 101411
02:00+17s227413 0.0 101420
05:00+16ssw11755 0.0 101414
08:00+21sw27625 0.0 1015212
11:00+27wsw35405 0.0 1014724
14:00+30w353085 0.0 10131957
17:00+30w24305 0.0 10121936
20:00+24ese11565 0.0 101212
4 august, wed
wed423:00+21se225786 0.0 101215
02:00+19se116049 0.0 101213
05:00+19se226248 0.0 101213
08:00+23sse266115 0.0 1012184
11:00+29ssw35385 0.0 1011711
14:00+32wsw343229 0.0 10101189
17:00+33sw25336 0.0 10091110
20:00+26s51344100 0.1 1010611
5 august, thu
thu523:00+21wsw115098 0.1 101011
02:00+18ese116199 0.0 101111
05:00+18wsw126895 0.1 101033
08:00+18wsw269399 1.1 1012196
11:00+24wnw12665 1.2 1012603
14:00+28w244463 0.0 10111862
17:00+26wnw3355100 0.0 10101090
20:00+20ne238899 0.9 101154